Tracking 19709 objects as of 19-Jun-2019
HD Live streaming from Space Station
objects crossing your sky now

SL-8 DEB

Track SL-8 DEB now!
10-day predictions


NORAD ID: 39840
Int'l Code: 1991-009DY
Perigee: 1,001.6 km
Apogee: 1,204.2 km
Inclination: 73.8 °
Period: 107.2 minutes
Semi major axis: 7473 km
RCS: 0.0175 m2 (small)
Launch date: February 12, 1991
Source: Commonwealth of Independent States (former USSR) (CIS)
Launch site: PLESETSK MISSILE AND SPACE COMPLEX (PKMTR)

Note: This is SATELLITE DEBRIS
aabbcc
Your satellite tracking list
Your tracking list is empty




NASA's NSSDC Master Catalog

Two Line Element Set (TLE):
1 39840U 91009DY  19169.58453882  .00000544  00000-0  92856-3 0  9998
2 39840  73.8241 258.3904 0135554  64.6329 358.1832 13.43640353786097
Source of the keplerian elements: AFSPC